Time,TemperatureF,DewpointF,PressureIn,WindDirection,WindDirectionDegrees,WindSpeedMPH,WindSpeedGustMPH,Humidity,HourlyPrecipIn,Conditions,Clouds,dailyrainin,SolarRadiationWatts/m^2,SoftwareType,DateUTC
2013-04-05 00:05:00,52.7,44.3,29.56,West,260,2.0,2.0,73,0.00,,,0.00,0,Wunderground v.1.15,2013-04-04 22:05:00,
2013-04-05 00:20:00,52.7,44.3,29.56,WSW,257,1.0,1.0,73,0.00,,,0.00,0,Wunderground v.1.15,2013-04-04 22:20:00,
2013-04-05 00:31:00,52.6,44.2,29.56,WSW,257,1.0,3.0,73,0.00,,,0.00,0,Wunderground v.1.15,2013-04-04 22:31:00,
2013-04-05 00:40:00,52.6,43.8,29.56,WSW,257,1.0,1.0,72,0.00,,,0.00,0,Wunderground v.1.15,2013-04-04 22:40:00,
2013-04-05 00:55:00,53.2,44.4,29.56,WSW,253,2.0,2.0,72,0.00,,,0.00,0,Wunderground v.1.15,2013-04-04 22:55:00,
2013-04-05 01:05:00,53.5,44.3,29.55,West,259,1.0,1.0,71,0.00,,,0.00,0,Wunderground v.1.15,2013-04-04 23:05:00,
2013-04-05 01:11:00,53.5,44.3,29.55,West,259,0.0,1.0,71,0.00,,,0.00,0,Wunderground v.1.15,2013-04-04 23:11:00,
2013-04-05 01:20:00,53.6,44.4,29.55,West,259,0.0,1.0,71,0.00,,,0.00,0,Wunderground v.1.15,2013-04-04 23:20:00,
2013-04-05 01:31:00,53.5,44.3,29.55,West,259,1.0,1.0,71,0.00,,,0.00,0,Wunderground v.1.15,2013-04-04 23:31:00,
2013-04-05 01:40:00,53.1,43.9,29.55,West,265,2.0,3.0,71,0.00,,,0.00,0,Wunderground v.1.15,2013-04-04 23:40:00,
2013-04-05 01:50:00,52.6,43.8,29.55,WNW,284,3.0,3.0,72,0.00,,,0.00,0,Wunderground v.1.15,2013-04-04 23:50:00,
2013-04-05 02:10:00,52.6,43.8,29.55,WNW,292,3.0,3.0,72,0.00,,,0.00,0,Wunderground v.1.15,2013-04-05 00:10:00,
2013-04-05 02:26:00,52.7,43.9,29.55,NW,304,1.0,1.0,72,0.00,,,0.00,0,Wunderground v.1.15,2013-04-05 00:26:00,
2013-04-05 02:40:00,52.7,43.9,29.55,WNW,303,0.0,0.0,72,0.00,,,0.00,0,Wunderground v.1.15,2013-04-05 00:40:00,
2013-04-05 02:56:00,52.9,44.5,29.55,WNW,303,1.0,1.0,73,0.00,,,0.00,0,Wunderground v.1.15,2013-04-05 00:56:00,
2013-04-05 03:05:00,53.2,44.8,29.55,WNW,303,1.0,1.0,73,0.00,,,0.00,0,Wunderground v.1.15,2013-04-05 01:05:00,
2013-04-05 03:11:00,53.3,44.9,29.55,WNW,303,1.0,3.0,73,0.00,,,0.00,0,Wunderground v.1.15,2013-04-05 01:11:00,
2013-04-05 03:20:00,53.2,44.8,29.56,NW,304,1.0,3.0,73,0.00,,,0.00,0,Wunderground v.1.15,2013-04-05 01:20:00,
2013-04-05 03:30:00,53.0,44.6,29.55,NW,304,1.0,1.0,73,0.00,,,0.00,0,Wunderground v.1.15,2013-04-05 01:30:00,
2013-04-05 03:45:00,53.0,44.6,29.55,WNW,291,2.0,2.0,73,0.00,,,0.00,0,Wunderground v.1.15,2013-04-05 01:45:00,
2013-04-05 03:56:00,52.9,44.8,29.55,WNW,290,3.0,3.0,74,0.00,,,0.00,0,Wunderground v.1.15,2013-04-05 01:56:00,
2013-04-05 04:05:00,52.9,44.8,29.55,WNW,290,0.0,0.0,74,0.00,,,0.00,0,Wunderground v.1.15,2013-04-05 02:05:00,
2013-04-05 04:15:00,52.7,44.6,29.54,WNW,290,0.0,0.0,74,0.00,,,0.00,0,Wunderground v.1.15,2013-04-05 02:15:00,
2013-04-05 04:26:00,52.5,44.4,29.54,WNW,290,0.0,0.0,74,0.00,,,0.00,0,Wunderground v.1.15,2013-04-05 02:26:00,
2013-04-05 04:40:00,52.1,44.1,29.54,WNW,290,0.0,0.0,74,0.00,,,0.00,0,Wunderground v.1.15,2013-04-05 02:40:00,
2013-04-05 04:50:00,52.0,44.0,29.54,West,273,1.0,1.0,74,0.00,,,0.00,0,Wunderground v.1.15,2013-04-05 02:50:00,
2013-04-05 05:05:00,51.8,43.8,29.54,SW,219,1.0,1.0,74,0.00,,,0.00,0,Wunderground v.1.15,2013-04-05 03:05:00,
2013-04-05 05:16:00,51.6,43.6,29.54,West,265,2.0,2.0,74,0.00,,,0.00,0,Wunderground v.1.15,2013-04-05 03:16:00,
2013-04-05 05:30:00,51.6,43.6,29.54,West,264,0.0,1.0,74,0.00,,,0.00,0,Wunderground v.1.15,2013-04-05 03:30:00,
2013-04-05 05:45:00,51.7,43.7,29.54,WSW,247,0.0,1.0,74,0.00,,,0.00,0,Wunderground v.1.15,2013-04-05 03:45:00,
2013-04-05 05:56:00,51.7,43.7,29.54,ENE,59,1.0,2.0,74,0.00,,,0.00,0,Wunderground v.1.15,2013-04-05 03:56:00,
2013-04-05 06:05:00,52.7,44.3,29.55,NE,42,2.0,3.0,73,0.00,,,0.00,0,Wunderground v.1.15,2013-04-05 04:05:00,
2013-04-05 06:15:00,53.2,44.0,29.55,NE,53,1.0,1.0,71,0.00,,,0.00,0,Wunderground v.1.15,2013-04-05 04:15:00,
2013-04-05 06:30:00,53.4,43.9,29.55,NE,53,0.0,0.0,70,0.00,,,0.00,0,Wunderground v.1.15,2013-04-05 04:30:00,
2013-04-05 06:41:00,52.9,43.0,29.55,NE,53,1.0,1.0,69,0.00,,,0.00,0,Wunderground v.1.15,2013-04-05 04:41:00,
2013-04-05 06:56:00,52.0,42.5,29.55,NE,54,1.0,1.0,70,0.00,,,0.00,0,Wunderground v.1.15,2013-04-05 04:56:00,
2013-04-05 07:05:00,51.3,42.6,29.56,West,261,2.0,2.0,72,0.00,,,0.00,0,Wunderground v.1.15,2013-04-05 05:05:00,
2013-04-05 07:15:00,51.2,42.8,29.56,West,279,2.0,3.0,73,0.00,,,0.00,0,Wunderground v.1.15,2013-04-05 05:15:00,
2013-04-05 07:20:00,51.2,42.8,29.57,WNW,298,3.0,3.0,73,0.00,,,0.00,0,Wunderground v.1.15,2013-04-05 05:20:00,
2013-04-05 07:26:00,51.1,42.7,29.56,West,275,2.0,2.0,73,0.00,,,0.00,0,Wunderground v.1.15,2013-04-05 05:26:00,
2013-04-05 07:35:00,50.9,42.9,29.57,WNW,285,2.0,3.0,74,0.00,,,0.00,7,Wunderground v.1.15,2013-04-05 05:35:00,
2013-04-05 07:40:00,50.8,42.8,29.57,WNW,290,3.0,3.0,74,0.00,,,0.00,11,Wunderground v.1.15,2013-04-05 05:40:00,
2013-04-05 07:45:00,50.8,42.8,29.57,WNW,295,2.0,3.0,74,0.00,,,0.00,33,Wunderground v.1.15,2013-04-05 05:45:00,
2013-04-05 07:56:00,50.9,43.3,29.57,WNW,295,2.0,3.0,75,0.00,,,0.00,62,Wunderground v.1.15,2013-04-05 05:56:00,
2013-04-05 08:05:00,51.3,43.6,29.58,WNW,294,1.0,1.0,75,0.00,,,0.00,93,Wunderground v.1.15,2013-04-05 06:05:00,
2013-04-05 08:10:00,51.5,43.8,29.58,WNW,294,1.0,2.0,75,0.00,,,0.00,111,Wunderground v.1.15,2013-04-05 06:10:00,
2013-04-05 08:21:00,51.9,44.2,29.58,WNW,292,1.0,2.0,75,0.00,,,0.00,141,Wunderground v.1.15,2013-04-05 06:21:00,
2013-04-05 08:30:00,52.3,44.6,29.58,WNW,292,0.0,1.0,75,0.00,,,0.00,171,Wunderground v.1.15,2013-04-05 06:30:00,
2013-04-05 08:36:00,52.8,45.4,29.58,WNW,292,0.0,1.0,76,0.00,,,0.00,188,Wunderground v.1.15,2013-04-05 06:36:00,
2013-04-05 08:45:00,53.5,45.4,29.60,WNW,292,1.0,1.0,74,0.00,,,0.00,218,Wunderground v.1.15,2013-04-05 06:45:00,
2013-04-05 08:51:00,53.8,45.7,29.60,WNW,292,1.0,1.0,74,0.00,,,0.00,236,Wunderground v.1.15,2013-04-05 06:51:00,
2013-04-05 09:06:00,55.8,47.6,29.60,WNW,292,1.0,1.0,74,0.00,,,0.00,287,Wunderground v.1.15,2013-04-05 07:06:00,
2013-04-05 09:20:00,58.2,49.6,29.60,WNW,292,0.0,2.0,73,0.00,,,0.00,338,Wunderground v.1.15,2013-04-05 07:20:00,
2013-04-05 09:45:00,59.7,49.5,29.61,SSE,163,2.0,3.0,69,0.00,,,0.00,422,Wunderground v.1.15,2013-04-05 07:45:00,
2013-04-05 09:56:00,59.7,49.1,29.61,East,99,3.0,3.0,68,0.00,,,0.00,457,Wunderground v.1.15,2013-04-05 07:56:00,
2013-04-05 10:05:00,60.0,49.4,29.61,SE,133,3.0,3.0,68,0.00,,,0.00,494,Wunderground v.1.15,2013-04-05 08:05:00,
2013-04-05 10:10:00,60.3,49.7,29.61,SE,128,3.0,3.0,68,0.00,,,0.00,506,Wunderground v.1.15,2013-04-05 08:10:00,
2013-04-05 10:21:00,60.7,50.1,29.61,SE,138,2.0,3.0,68,0.00,,,0.00,552,Wunderground v.1.15,2013-04-05 08:21:00,
2013-04-05 10:30:00,61.1,50.5,29.62,ESE,121,3.0,3.0,68,0.00,,,0.00,584,Wunderground v.1.15,2013-04-05 08:30:00,
2013-04-05 10:41:00,61.3,50.2,29.63,East,98,3.0,3.0,67,0.00,,,0.00,638,Wunderground v.1.15,2013-04-05 08:41:00,
2013-04-05 10:51:00,61.6,50.1,29.63,SE,126,3.0,3.0,66,0.00,,,0.00,712,Wunderground v.1.15,2013-04-05 08:51:00,
2013-04-05 11:06:00,63.0,50.6,29.63,SE,128,3.0,4.0,64,0.00,,,0.00,752,Wunderground v.1.15,2013-04-05 09:06:00,
2013-04-05 11:15:00,63.3,50.1,29.63,ESE,107,3.0,4.0,62,0.00,,,0.00,817,Wunderground v.1.15,2013-04-05 09:15:00,
2013-04-05 11:25:00,63.9,50.2,29.63,SE,138,3.0,6.0,61,0.00,,,0.00,937,Wunderground v.1.15,2013-04-05 09:25:00,
2013-04-05 11:40:00,64.9,50.2,29.63,South,172,3.0,4.0,59,0.00,,,0.00,963,Wunderground v.1.15,2013-04-05 09:40:00,
2013-04-05 11:55:00,64.5,49.4,29.63,SE,144,4.0,4.0,58,0.00,,,0.00,410,Wunderground v.1.15,2013-04-05 09:55:00,
2013-04-05 12:10:00,64.8,49.2,29.63,South,191,3.0,4.0,57,0.00,,,0.00,339,Wunderground v.1.15,2013-04-05 10:10:00,
2013-04-05 12:25:00,63.6,48.5,29.63,South,174,3.0,4.0,58,0.00,,,0.00,257,Wunderground v.1.15,2013-04-05 10:25:00,
2013-04-05 12:40:00,62.5,47.5,29.63,SE,132,3.0,4.0,58,0.00,,,0.00,91,Wunderground v.1.15,2013-04-05 10:40:00,
2013-04-05 13:05:00,59.7,49.1,29.64,West,277,3.0,3.0,68,0.00,,,0.00,53,Wunderground v.1.15,2013-04-05 11:05:00,
2013-04-05 13:15:00,59.0,49.6,29.63,East,92,2.0,6.0,71,0.00,,,0.00,239,Wunderground v.1.15,2013-04-05 11:15:00,
2013-04-05 13:25:00,59.0,50.7,29.63,NNE,16,2.0,2.0,74,0.00,,,0.00,294,Wunderground v.1.15,2013-04-05 11:25:00,
2013-04-05 13:30:00,59.0,51.1,29.63,NE,48,2.0,2.0,75,0.00,,,0.00,295,Wunderground v.1.15,2013-04-05 11:30:00,
2013-04-05 13:45:00,59.0,51.1,29.63,NE,39,2.0,3.0,75,0.00,,,0.00,367,Wunderground v.1.15,2013-04-05 11:45:00,
2013-04-05 14:05:00,59.1,50.8,29.63,NNE,30,2.0,2.0,74,0.00,,,0.00,285,Wunderground v.1.15,2013-04-05 12:05:00,
2013-04-05 14:15:00,59.8,51.1,29.62,SSE,167,2.0,5.0,73,0.00,,,0.00,357,Wunderground v.1.15,2013-04-05 12:15:00,
2013-04-05 14:30:00,60.6,48.8,29.62,SSW,207,3.0,7.0,65,0.00,,,0.00,255,Wunderground v.1.15,2013-04-05 12:30:00,
2013-04-05 14:41:00,60.5,45.6,29.63,SSE,153,5.0,5.0,58,0.00,,,0.00,155,Wunderground v.1.15,2013-04-05 12:41:00,
2013-04-05 14:55:00,62.0,45.6,29.63,SSE,159,5.0,7.0,55,0.00,,,0.00,1134,Wunderground v.1.15,2013-04-05 12:55:00,
2013-04-05 15:10:00,65.2,46.1,29.63,SSE,150,5.0,7.0,50,0.00,,,0.00,1032,Wunderground v.1.15,2013-04-05 13:10:00,
2013-04-05 15:21:00,65.9,46.2,29.63,SE,144,5.0,5.0,49,0.00,,,0.00,926,Wunderground v.1.15,2013-04-05 13:21:00,
2013-04-05 15:30:00,64.0,49.8,29.62,SE,132,5.0,6.0,60,0.00,,,0.00,1039,Wunderground v.1.15,2013-04-05 13:30:00,
2013-04-05 15:40:00,63.8,50.1,29.62,ESE,114,4.0,4.0,61,0.00,,,0.00,997,Wunderground v.1.15,2013-04-05 13:40:00,
2013-04-05 15:56:00,63.6,47.6,29.62,East,79,4.0,5.0,56,0.00,,,0.00,229,Wunderground v.1.15,2013-04-05 13:56:00,
2013-04-05 16:25:00,61.8,49.1,29.62,ENE,74,3.0,3.0,63,0.00,,,0.00,105,Wunderground v.1.15,2013-04-05 14:25:00,
2013-04-05 16:45:00,60.4,49.0,29.62,ESE,119,3.0,3.0,66,0.00,,,0.00,155,Wunderground v.1.15,2013-04-05 14:45:00,
2013-04-05 17:05:00,60.4,49.8,29.62,East,83,3.0,3.0,68,0.00,,,0.00,207,Wunderground v.1.15,2013-04-05 15:05:00,
2013-04-05 17:15:00,60.5,49.9,29.62,ESE,106,3.0,3.0,68,0.00,,,0.00,162,Wunderground v.1.15,2013-04-05 15:15:00,
2013-04-05 17:25:00,60.2,50.0,29.62,NE,40,2.0,2.0,69,0.00,,,0.00,149,Wunderground v.1.15,2013-04-05 15:25:00,
2013-04-05 17:35:00,60.1,49.5,29.62,ESE,103,2.0,3.0,68,0.00,,,0.00,109,Wunderground v.1.15,2013-04-05 15:35:00,
2013-04-05 17:51:00,59.9,49.7,29.62,East,90,2.0,3.0,69,0.00,,,0.00,74,Wunderground v.1.15,2013-04-05 15:51:00,
2013-04-05 18:05:00,59.5,50.1,29.62,East,91,2.0,2.0,71,0.00,,,0.00,100,Wunderground v.1.15,2013-04-05 16:05:00,
2013-04-05 18:15:00,59.3,50.3,29.63,East,85,2.0,5.0,72,0.00,,,0.00,76,Wunderground v.1.15,2013-04-05 16:15:00,
2013-04-05 18:26:00,59.0,50.4,29.63,NNE,29,1.0,1.0,73,0.00,,,0.00,56,Wunderground v.1.15,2013-04-05 16:26:00,
2013-04-05 18:36:00,59.0,50.7,29.63,ENE,61,2.0,2.0,74,0.00,,,0.00,47,Wunderground v.1.15,2013-04-05 16:36:00,
2013-04-05 18:45:00,58.2,49.6,29.63,NNE,16,2.0,2.0,73,0.00,,,0.00,44,Wunderground v.1.15,2013-04-05 16:45:00,
2013-04-05 18:55:00,58.3,50.4,29.63,NNE,15,1.0,1.0,75,0.00,,,0.00,26,Wunderground v.1.15,2013-04-05 16:55:00,
2013-04-05 19:10:00,58.2,50.3,29.63,NNE,16,0.0,1.0,75,0.00,,,0.00,14,Wunderground v.1.15,2013-04-05 17:10:00,
2013-04-05 19:21:00,57.7,50.2,29.63,WNW,299,2.0,2.0,76,0.00,,,0.01,12,Wunderground v.1.15,2013-04-05 17:21:00,
2013-04-05 19:30:00,56.9,49.8,29.63,NW,306,1.0,2.0,77,0.00,,,0.01,16,Wunderground v.1.15,2013-04-05 17:30:00,
2013-04-05 19:40:00,56.6,49.5,29.63,NW,306,0.0,0.0,77,0.00,,,0.01,12,Wunderground v.1.15,2013-04-05 17:40:00,
2013-04-05 19:50:00,56.4,49.3,29.64,NW,306,0.0,0.0,77,0.00,,,0.01,9,Wunderground v.1.15,2013-04-05 17:50:00,
2013-04-05 20:05:00,56.1,49.0,29.64,ENE,66,2.0,2.0,77,0.00,,,0.01,0,Wunderground v.1.15,2013-04-05 18:05:00,
2013-04-05 20:15:00,55.7,48.6,29.64,NNW,337,2.0,2.0,77,0.00,,,0.01,0,Wunderground v.1.15,2013-04-05 18:15:00,
2013-04-05 20:25:00,54.9,48.2,29.64,NW,310,3.0,3.0,78,0.00,,,0.01,0,Wunderground v.1.15,2013-04-05 18:25:00,
2013-04-05 20:36:00,54.2,47.8,29.64,WSW,238,4.0,5.0,79,0.18,,,0.03,0,Wunderground v.1.15,2013-04-05 18:36:00,
2013-04-05 20:45:00,53.6,47.6,29.65,WNW,286,4.0,5.0,80,0.08,,,0.05,0,Wunderground v.1.15,2013-04-05 18:45:00,
2013-04-05 20:55:00,53.0,47.3,29.66,NNE,14,3.0,4.0,81,0.41,,,0.07,0,Wunderground v.1.15,2013-04-05 18:55:00,
2013-04-05 21:10:00,52.4,47.1,29.66,NW,305,3.0,6.0,82,0.12,,,0.13,0,Wunderground v.1.15,2013-04-05 19:10:00,
2013-04-05 21:25:00,52.3,47.6,29.66,NNW,343,3.0,9.0,84,0.12,,,0.16,0,Wunderground v.1.15,2013-04-05 19:25:00,
2013-04-05 21:40:00,52.2,47.5,29.66,NNW,340,3.0,3.0,84,0.04,,,0.17,0,Wunderground v.1.15,2013-04-05 19:40:00,
2013-04-05 21:55:00,52.1,47.4,29.67,WNW,301,3.0,4.0,84,0.07,,,0.18,0,Wunderground v.1.15,2013-04-05 19:55:00,
2013-04-05 22:05:00,51.7,47.0,29.67,NNW,327,4.0,4.0,84,0.13,,,0.20,0,Wunderground v.1.15,2013-04-05 20:05:00,
2013-04-05 22:16:00,51.4,46.7,29.68,WNW,286,6.0,6.0,84,0.20,,,0.21,0,Wunderground v.1.15,2013-04-05 20:16:00,
2013-04-05 22:25:00,51.1,46.4,29.68,NW,309,5.0,10.0,84,0.14,,,0.23,0,Wunderground v.1.15,2013-04-05 20:25:00,
2013-04-05 22:40:00,50.6,45.6,29.68,NNW,329,5.0,5.0,83,0.26,,,0.26,0,Wunderground v.1.15,2013-04-05 20:40:00,
2013-04-05 22:51:00,50.5,45.5,29.68,NNW,331,5.0,5.0,83,0.11,,,0.28,0,Wunderground v.1.15,2013-04-05 20:51:00,
2013-04-05 23:11:00,50.0,45.0,29.68,NW,318,5.0,8.0,83,0.05,,,0.29,0,Wunderground v.1.15,2013-04-05 21:11:00,
2013-04-05 23:25:00,49.7,44.4,29.68,WNW,284,5.0,10.0,82,0.00,,,0.29,0,Wunderground v.1.15,2013-04-05 21:25:00,
2013-04-05 23:36:00,49.5,44.6,29.68,North,350,6.0,6.0,83,0.00,,,0.30,0,Wunderground v.1.15,2013-04-05 21:36:00,
2013-04-05 23:45:00,49.2,43.9,29.68,NW,325,5.0,5.0,82,0.00,,,0.30,0,Wunderground v.1.15,2013-04-05 21:45:00,
2013-04-05 23:56:00,49.1,43.8,29.68,NW,314,5.0,5.0,82,0.00,,,0.31,0,Wunderground v.1.15,2013-04-05 21:56:00,